星链-32422 (STARLINK-32422)

导读

STARLINK-32422是美国于2024年10月18日发射的星链卫星,隶属于SpaceX公司的星链互联网星座项目。星链计划旨在通过数千近地轨道卫星为全球提供高速低延迟互联网覆盖,该卫星入轨后将服务偏远地区联网、海事航空通信等场景,也补充完善了全球卫星互联网络的覆盖能力。

Basic Information
目录编号:
61592
目录名称:
STARLINK-32422
国际标识:
2024-187U
轨道中心:
EARTH
卫星名称:
星链-32422
卫星全名:
星链-32422 (STARLINK-32422)
卫星状态:
在轨 (已飞行686 天)
发射日期:
2024-10-18 UTC
国别 :
美国 (US)
星等 :
--
Orbit Information
数据来源 国际轨道数据 AOE轨道数据
星历时间 2026-09-03T12:20:42+0800
22小时前
查看轨道信息
2026-09-02T16:00:00+0800
1天前
查看轨道信息
半长轴 6840.861km 6840.878km
偏心率 0.0001063 0.0001515
轨道倾角 53.159° 53.156°
近地点辐角 91.535° 96.370°
升交点赤经 302.472° 306.433°
平近点角 268.578° 258.516°
近地点 461.996km 461.704km
远地点 463.452km 463.778km
周期 93.848分钟 93.849分钟
每日圈数 15.343933 15.343876
Detailed Information
固有亮度:
5
最大亮度:
2.5
卫星平台:
Starlink V1.0
覆盖范围:
全球
运营商:
太空探索技术公司
运营商所在国:
美国
制造商(研发单位):
太空探索技术公司
制造商所在国:
美国
使用方式:
暂无
Satellite Introduction
Starlink 计划是 SpaceX 推出的全球卫星互联网项目,通过发射低轨道卫星,为全球尤其是偏远地区提供高速、低延迟的互联网服务。自 2019 年起,Starlink 已部署数千颗卫星,旨在缩小全球数字鸿沟,推动互联网普及。该项目还为军事、航空等行业提供通信支持,带来广泛经济效益。
2D Orbit Map
3D Orbit Map
Orbit Altitude Analysis Chart
Orbit Inclination Analysis Chart
Orbit Comprehensive Analysis Chart
View Comprehensive Chart
Conjunction Data List
Event ID Objects TCA Miss Dist (km) Collision Risk Probability Collision Risk Index (CRI) Action
CDM_260904-142706-159206-851321
2026-09-04T
14:27:28+0000
0.192 km
中距离
6.700585E-4 高风险 0.92
CDM_260905-051806-159206-851321
2026-09-05T
05:18:30+0000
0.791 km
远距离
3.761995E-5 中风险 0.67
CDM_260905-034406-159206-851321
2026-09-05T
03:44:43+0000
1.786 km
极远距离
2.554929E-6 低风险 0.43
CDM_260904-160106-159206-851321
2026-09-04T
16:01:16+0000
2.091 km
极远距离
1.707858E-6 低风险 0.4
CDM_260904-125306-159206-851322
2026-09-04T
12:53:41+0000
2.141 km
极远距离
1.618787E-6 低风险 0.39
CDM_260905-143606-034306-159221
2026-09-05T
14:36:48+0000
2.419 km
极远距离
7.529847E-7 极低风险 0.33
CDM_260904-173005-354406-159221
2026-09-04T
17:30:52+0000
2.877 km
极远距离
6.262538E-7 极低风险 0.31